FW9909 Weather Reports


Display with metric or nautical units.
time (UTC)temp
F
wind
direction
speed
MPH
gust
MPH
rain 1hr
in
rain 24hr
in
rain mn
in
humidity
%
barometer
mb
20260504050543 64 223 4.0 7.0 0.00 0.00 0.00 57 1011.1
20260504045520 64 215 3.0 5.0 0.00 0.00 0.00 59 1011.0
20260504044519 63 228 2.0 4.0 0.00 0.00 0.00 59 1011.3
20260504043517 63 205 2.0 4.0 0.00 0.00 0.00 61 1011.2
20260504042515 63 227 2.0 4.0 0.00 0.00 0.00 60 1011.2
20260504041533 63 223 2.0 4.0 0.00 0.00 0.00 60 1011.5
20260504040551 63 236 2.0 4.0 0.00 0.00 0.00 60 1011.4
20260504035529 64 213 2.0 4.0 0.00 0.00 0.00 59 1011.5
20260504034528 64 240 1.0 4.0 0.00 0.00 0.00 58 1011.5
20260504033526 64 207 2.0 4.0 0.00 0.00 0.00 58 1011.6
20260504032524 65 211 2.0 4.0 0.00 0.00 0.00 57 1011.7
20260504031522 64 192 2.0 4.0 0.00 0.00 0.00 58 1011.7
20260504030520 65 180 1.0 4.0 0.00 0.00 0.00 57 1011.7
20260504025518 65 226 1.0 3.0 0.00 0.00 0.00 56 1011.7
20260504024516 65 213 1.0 4.0 0.00 0.00 0.00 55 1011.7
20260504023535 65 160 1.0 4.0 0.00 0.00 0.00 55 1011.5
20260504022533 65 125 1.0 3.0 0.00 0.00 0.00 55 1011.6
20260504021531 65 158 2.0 4.0 0.00 0.00 0.00 54 1011.6
20260504020529 65 90 1.0 2.0 0.00 0.00 0.00 54 1011.5
20260504015527 67 110 0.0 2.0 0.00 0.00 0.00 53 1011.6
20260504014526 68 256 0.0 2.0 0.00 0.00 0.00 50 1011.4
20260504013544 69 219 1.0 2.0 0.00 0.00 0.00 49 1011.5
20260504012522 69 267 1.0 3.0 0.00 0.00 0.00 48 1011.4
20260504011540 70 235 1.0 3.0 0.00 0.00 0.00 46 1011.3
20260504010518 71 238 2.0 4.0 0.00 0.00 0.00 44 1011.4
20260504005536 72 250 2.0 5.0 0.00 0.00 0.00 43 1011.3
20260504004534 73 238 2.0 5.0 0.00 0.00 0.00 42 1011.3
20260504003533 73 253 2.0 5.0 0.00 0.00 0.00 40 1011.4
20260504002550 74 238 3.0 5.0 0.00 0.00 0.00 38 1011.5
20260504001529 75 249 4.0 11.0 0.00 0.00 0.00 37 1011.5
20260504000547 75 246 3.0 7.0 0.00 0.00 0.00 36 1011.6
20260503235525 75 241 4.0 9.0 0.00 0.00 0.00 34 1011.6
20260503234523 76 243 3.0 6.0 0.00 0.00 0.00 34 1011.7
20260503233521 77 241 5.0 10.0 0.00 0.00 0.00 33 1011.7
20260503232519 77 240 6.0 10.0 0.00 0.00 0.00 33 1011.8
20260503231517 77 243 5.0 9.0 0.00 0.00 0.00 34 1011.7
20260503230516 77 251 4.0 7.0 0.00 0.00 0.00 33 1011.7
20260503225534 78 248 3.0 6.0 0.00 0.00 0.00 34 1011.7
20260503224532 78 237 6.0 11.0 0.00 0.00 0.00 31 1011.8
20260503223530 79 248 5.0 11.0 0.00 0.00 0.00 31 1011.8
20260503222528 80 249 5.0 11.0 0.00 0.00 0.00 31 1012.0
20260503221647 80 256 5.0 9.0 0.00 0.00 0.00 31 1012.1
20260503220525 80 246 7.0 13.0 0.00 0.00 0.00 31 1012.3
20260503215523 81 239 7.0 13.0 0.00 0.00 0.00 31 1012.2
20260503214521 80 260 3.0 10.0 0.00 0.00 0.00 32 1012.3
20260503213519 80 249 7.0 15.0 0.00 0.00 0.00 30 1012.5
20260503212518 81 239 7.0 14.0 0.00 0.00 0.00 31 1012.6
20260503211515 80 231 6.0 13.0 0.00 0.00 0.00 30 1012.7
20260503210533 80 237 8.0 15.0 0.00 0.00 0.00 32 1012.8
20260503205532 80 251 5.0 10.0 0.00 0.00 0.00 33 1013.0
20260503204530 80 245 6.0 15.0 0.00 0.00 0.00 32 1013.3
20260503203528 80 240 5.0 11.0 0.00 0.00 0.00 36 1013.4
20260503202526 79 250 7.0 12.0 0.00 0.00 0.00 36 1013.4
20260503201524 79 251 7.0 13.0 0.00 0.00 0.00 34 1013.7
20260503200542 80 249 5.0 9.0 0.00 0.00 0.00 36 1013.8
20260503195520 79 251 6.0 11.0 0.00 0.00 0.00 36 1013.9
20260503194538 79 242 5.0 13.0 0.00 0.00 0.00 37 1014.2
20260503193537 78 241 7.0 12.0 0.00 0.00 0.00 37 1014.3
20260503192535 78 246 7.0 14.0 0.00 0.00 0.00 37 1014.6
20260503191534 78 247 5.0 10.0 0.00 0.00 0.00 38 1014.6
20260503190531 77 241 6.0 13.0 0.00 0.00 0.00 41 1014.8
20260503185529 76 243 7.0 12.0 0.00 0.00 0.00 40 1014.9
20260503184527 76 243 6.0 11.0 0.00 0.00 0.00 42 1015.1
20260503183525 76 244 5.0 11.0 0.00 0.00 0.00 42 1015.3
20260503182524 75 246 6.0 16.0 0.00 0.00 0.00 43 1015.5
20260503181522 75 231 5.0 12.0 0.00 0.00 0.00 45 1015.7
20260503180520 75 247 3.0 8.0 0.00 0.00 0.00 46 1016.0
20260503175538 74 254 5.0 9.0 0.00 0.00 0.00 45 1016.2
20260503174537 73 254 5.0 11.0 0.00 0.00 0.00 46 1016.3
20260503173534 72 249 6.0 9.0 0.00 0.00 0.00 47 1016.4
20260503172533 71 264 5.0 10.0 0.00 0.00 0.00 46 1016.7
20260503171531 71 240 6.0 9.0 0.00 0.00 0.00 47 1016.9
20260503170529 70 258 5.0 10.0 0.00 0.00 0.00 47 1017.0
20260503150527 63 250 6.0 9.0 0.00 0.00 0.00 49 1017.9
20260503130524 50 210 2.0 5.0 0.00 0.00 0.00 74 1018.5
20260503110522 38 120 1.0 3.0 0.00 0.00 0.00 93 1018.5
20260503081531 40 102 2.0 2.0 0.00 0.00 0.00 91 1019.1
20260503080548 40 89 1.0 2.0 0.00 0.00 0.00 91 1019.0
20260503072521 42 94 1.0 2.0 0.00 0.00 0.00 89 1019.3